Location: Cambroso
(45.2833°N, 12.0850°E)
Time: 10:37:47
(UTC+00:00)

USA 234 - Pass Details

Date: 21 January 2021
Orbit: 1100 x 1107 km, 123.0° (Epoch: 26 February)

Event Time Altitude Azimuth Distance (km) Brightness Sun altitude
Exits shadow 17:55:44 28° 55° (NE) 1,955 4.1 -19.5°
Maximum altitude 17:58:13 37° 15° (NNE) 1,649 4.0 -19.9°
Drops below altitude 10° 18:04:06 10° 311° (NW) 2,968 6.1 -21.0°
Sets 18:06:46 0° 303° (WNW) 3,928 6.9 -21.4°
